FW4080 Weather Reports


time (UTC)temp
C
wind
direction
speed
KPH
gust
KPH
rain 1hr
cm
rain 24hr
cm
rain mn
cm
humidity
%
barometer
mb
20260508174558 18 15 0.0 11.3 0.00 0.00 0.00 52 1012.6
20260508173052 17 359 0.0 6.4 0.00 0.00 0.00 55 1012.9
20260508171550 16 165 0.0 4.8 0.00 0.00 0.00 55 1013.2
20260508170055 17 315 0.0 9.7 0.00 0.00 0.00 52 1013.4
20260508164548 17 84 1.6 6.4 0.00 0.00 0.00 52 1013.5
20260508163046 18 198 1.6 6.4 0.00 0.00 0.00 50 1013.6
20260508161542 17 198 0.0 4.8 0.00 0.00 0.00 56 1013.9
20260508160038 16 94 0.0 1.6 0.00 0.00 0.00 56 1014.0
20260508154558 15 113 0.0 4.8 0.00 0.00 0.00 55 1014.0
20260508153032 15 334 1.6 8.0 0.00 0.00 0.00 57 1014.1
20260508151527 13 136 0.0 9.7 0.00 0.00 0.00 58 1014.3
20260508150031 13 33 1.6 6.4 0.00 0.00 0.00 61 1014.4
20260508144520 12 58 0.0 1.6 0.00 0.00 0.00 64 1014.6
20260508143020 11 124 0.0 1.6 0.00 0.00 0.00 65 1014.6
20260508141524 11 98 0.0 4.8 0.00 0.00 0.00 63 1014.6
20260508140017 11 173 0.0 6.4 0.00 0.00 0.00 63 1014.6
20260508134517 11 166 0.0 4.8 0.00 0.00 0.00 62 1014.5
20260508133022 12 77 0.0 3.2 0.00 0.00 0.00 62 1014.6
20260508131515 12 264 0.0 6.4 0.00 0.00 0.00 62 1014.5
20260508130015 12 160 0.0 4.8 0.00 0.00 0.00 63 1014.4
20260508124511 11 347 0.0 3.2 0.00 0.00 0.00 66 1014.4
20260508123006 10 173 0.0 3.2 0.00 0.00 0.00 67 1014.3
20260508121506 10 138 0.0 3.2 0.00 0.00 0.00 68 1014.3
20260508120003 9 136 0.0 1.6 0.00 0.00 0.00 69 1014.3
20260508114502 8 319 0.0 4.8 0.00 0.00 0.00 70 1014.2
20260508113001 8 105 0.0 1.6 0.00 0.00 0.00 71 1014.1
20260508111501 7 226 0.0 1.6 0.00 0.00 0.00 75 1014.1
20260508110114 6 201 0.0 1.6 0.00 0.00 0.00 77 1014.1
20260508104600 6 324 0.0 1.6 0.00 0.00 0.00 76 1013.9
20260508103101 6 127 0.0 1.6 0.00 0.00 0.00 77 1013.8
20260508101559 5 117 0.0 1.6 0.00 0.00 0.00 80 1013.8
20260508100110 5 117 0.0 1.6 0.00 0.00 0.00 80 1013.6
20260508094606 5 117 0.0 0.0 0.00 0.00 0.00 79 1013.6
20260508093056 6 117 0.0 0.0 0.00 0.00 0.00 77 1013.7
20260508091603 6 119 0.0 0.0 0.00 0.00 0.00 78 1013.7
20260508090112 6 119 0.0 0.0 0.00 0.00 0.00 79 1013.8
20260508084552 5 118 0.0 0.0 0.00 0.00 0.00 80 1013.9
20260508083051 5 118 0.0 0.0 0.00 0.00 0.00 81 1013.8
20260508081602 5 118 0.0 0.0 0.00 0.00 0.00 80 1013.9
20260508080047 6 119 0.0 0.0 0.00 0.00 0.00 82 1013.9
20260508074548 6 125 0.0 0.0 0.00 0.00 0.00 81 1013.9
20260508073102 6 125 0.0 0.0 0.00 0.00 0.00 78 1014.0
20260508071539 7 125 0.0 0.0 0.00 0.00 0.00 75 1014.1
20260508070042 8 126 0.0 0.0 0.00 0.00 0.00 72 1014.3
20260508064537 8 125 0.0 3.2 0.00 0.00 0.00 70 1014.4
20260508063038 9 333 0.0 1.6 0.00 0.00 0.00 68 1014.7
20260508061541 9 319 0.0 1.6 0.00 0.00 0.00 65 1014.7
20260508060037 9 16 0.0 1.6 0.00 0.00 0.00 65 1014.5
20260508054536 10 16 0.0 1.6 0.00 0.00 0.00 63 1014.4
20260508053034 10 359 0.0 1.6 0.00 0.00 0.00 62 1014.2
20260508051531 10 332 0.0 1.6 0.00 0.00 0.00 62 1014.2
20260508050034 9 71 0.0 1.6 0.00 0.00 0.00 62 1014.2
20260508044526 8 20 0.0 1.6 0.00 0.00 0.00 65 1014.4
20260508043023 8 67 0.0 0.0 0.00 0.00 0.00 68 1014.4
20260508041521 8 68 0.0 1.6 0.00 0.00 0.00 71 1014.4
20260508040015 7 11 0.0 0.0 0.00 0.00 0.00 76 1014.4
20260508034516 6 9 0.0 0.0 0.00 0.00 0.00 75 1014.3
20260508033014 7 11 0.0 0.0 0.00 0.00 0.00 75 1014.4
20260508031514 6 9 0.0 0.0 0.00 0.00 0.00 79 1014.4
20260508030013 5 11 0.0 0.0 0.00 0.00 0.00 78 1014.3
20260508024532 5 9 0.0 0.0 0.00 0.00 0.00 76 1014.3
20260508023013 6 11 0.0 0.0 0.00 0.00 0.00 74 1014.3
20260508021511 6 9 0.0 0.0 0.00 0.00 0.00 73 1014.3
20260508020011 6 9 0.0 0.0 0.00 0.00 0.00 71 1014.2
20260508014510 7 9 0.0 0.0 0.00 0.00 0.00 68 1014.4
20260508013013 7 11 0.0 0.0 0.00 0.00 0.00 66 1014.3
20260508011509 8 9 0.0 0.0 0.00 0.00 0.00 62 1014.2
20260508010010 9 9 0.0 0.0 0.00 0.00 0.00 57 1014.0
20260508004513 10 9 0.0 0.0 0.00 0.00 0.00 53 1014.0
20260508003007 11 9 0.0 0.0 0.00 0.00 0.00 51 1014.0
20260508001519 11 336 0.0 3.2 0.00 0.00 0.00 48 1013.9
20260508000005 12 340 0.0 1.6 0.00 0.00 0.00 47 1013.7
20260507234509 12 1 0.0 4.8 0.00 0.00 0.00 45 1013.6
20260507233006 12 291 0.0 6.4 0.00 0.00 0.00 45 1013.6
20260507231504 12 348 0.0 6.4 0.00 0.00 0.00 44 1013.6
20260507230004 12 13 0.0 4.8 0.00 0.00 0.00 43 1013.6
20260507224504 12 328 0.0 3.2 0.00 0.00 0.00 45 1013.7
20260507223004 13 352 0.0 4.8 0.00 0.00 0.00 43 1013.9
20260507221501 13 335 0.0 4.8 0.00 0.00 0.00 44 1013.9
20260507220004 13 6 0.0 8.0 0.00 0.00 0.00 43 1013.9
20260507214501 14 217 0.0 4.8 0.00 0.00 0.00 41 1013.7
20260507213101 14 136 0.0 4.8 0.00 0.00 0.00 45 1013.6
20260507213000 14 39 0.0 6.4 0.00 0.00 0.00 42 1013.6
20260507211605 13 190 0.0 4.8 0.00 0.00 0.00 44 1013.5
20260507210111 14 210 1.6 6.4 0.00 0.00 0.00 40 1013.6
20260507204601 15 155 1.6 12.9 0.00 0.00 0.00 41 1013.4
20260507203125 15 23 1.6 11.3 0.00 0.00 0.00 43 1013.4
20260507201555 14 310 3.2 8.0 0.00 0.00 0.00 44 1013.5
20260507200058 14 336 0.0 12.9 0.00 0.00 0.00 45 1013.7
20260507194613 15 4 0.0 4.8 0.00 0.00 0.00 47 1013.6
20260507193055 15 281 1.6 12.9 0.00 0.00 0.00 44 1013.7
20260507191552 15 316 0.0 14.5 0.00 0.00 0.00 42 1013.7
20260507190056 15 243 3.2 11.3 0.00 0.00 0.00 44 1013.9
20260507184551 15 281 1.6 6.4 0.00 0.00 0.00 48 1013.9
20260507183049 15 58 1.6 6.4 0.00 0.00 0.00 49 1014.0
20260507181548 14 305 0.0 11.3 0.00 0.00 0.00 48 1014.0
20260507180047 15 132 1.6 6.4 0.00 0.00 0.00 50 1014.1